sat.trackr.live / text

‹ back to catalog

ONEWEB-0199

NORAD 48234 · 2021-031AA

PAYLOAD ACTIVE UNKNOWN

§ Identity

Operator
Country
UK
Launch date
2021-04-25
Launch site
VOSTO
Launch vehicle
Mass (kg)
RCS (m²)

Purposes: comms

External: N2YO · Heavens-Above · Gunter

§ Orbital elements

Epoch: 2026-05-25T02:55:09.651072Z

Period
109.55 min
Inclination
87.8951°
Eccentricity
0.0001932
Mean motion
13.14502128 rev/d
Perigee alt
1,204.3 km
Apogee alt
1,207.3 km
Semi-major
7,583.9 km
B*
-2.2499e-4
RAAN
294.2949°
Arg perigee
92.6274°
Mean anomaly
267.5077°
Rev number
24,523

§ Raw data

ONEWEB-01991 48234U 21031AA  26145.12163948 -.00000071  00000+0 -22499-3 0  99982 48234  87.8951 294.2949 0001932  92.6274 267.5077 13.14502128245232

JSON: /api/v1/satellites/48234 · /tle

For live sub-satellite position, see the globe view (requires WebGL).

§ Visibility from observer

Set your observer location to see the next 7 days of passes ≥ 10°. The values pass through the URL so the page stays shareable.

No JS? Fill the form by hand. The geolocation button needs JavaScript.